Kerema Airport


Codes: AYKM/KMA
Name: Kerema Airport
City: Kerema
Country: Papua New Guinea
Elevation: 10 ft.
Wikipedia:

Photos at Kerema Airport


   Photos courtesy of SpottingLog. You can add your own sightings and photos by signing up for a free trial today.



No photos found.

Weather at Kerema Airport


Time (UTC)DescriptionTempratureWindCloud coverageVisibilityPressureHumidity
16-Jun-2024 00:00Light Rain26°C4 mph, SE93%10000m1013hPa79%
16-Jun-2024 03:00Light Rain26°C11 mph, S94%10000m1013hPa79%
16-Jun-2024 06:00Light Rain26°C9 mph, SE88%10000m1012hPa81%
16-Jun-2024 09:00Light Rain25°C9 mph, SE92%10000m1013hPa83%
16-Jun-2024 12:00Overcast Clouds25°C7 mph, SE99%10000m1014hPa83%
16-Jun-2024 15:00Broken Clouds24°C7 mph, SE75%10000m1013hPa86%
16-Jun-2024 18:00Light Rain24°C7 mph, E80%10000m1013hPa88%
16-Jun-2024 21:00Light Rain24°C4 mph, E90%10000m1013hPa88%
17-Jun-2024 00:00Light Rain25°C4 mph, SE90%10000m1014hPa82%
17-Jun-2024 03:00Light Rain26°C9 mph, S35%10000m1012hPa78%
17-Jun-2024 06:00Scattered Clouds26°C9 mph, SE36%10000m1011hPa78%
17-Jun-2024 09:00Scattered Clouds25°C9 mph, SE49%10000m1012hPa81%
17-Jun-2024 12:00Broken Clouds25°C9 mph, SE53%10000m1014hPa82%
17-Jun-2024 15:00Light Rain24°C9 mph, SE92%10000m1013hPa84%
17-Jun-2024 18:00Light Rain24°C7 mph, SE95%10000m1013hPa84%
17-Jun-2024 21:00Light Rain24°C7 mph, E100%10000m1013hPa84%
18-Jun-2024 00:00Overcast Clouds26°C9 mph, SE98%10000m1014hPa75%
18-Jun-2024 03:00Overcast Clouds25°C11 mph, SE95%10000m1012hPa76%
18-Jun-2024 06:00Overcast Clouds25°C9 mph, SE97%10000m1011hPa76%
18-Jun-2024 09:00Overcast Clouds24°C9 mph, SE86%10000m1012hPa78%
18-Jun-2024 12:00Overcast Clouds25°C9 mph, SE88%10000m1013hPa79%
18-Jun-2024 15:00Light Rain24°C9 mph, SE97%10000m1012hPa82%
18-Jun-2024 18:00Light Rain24°C7 mph, SE98%10000m1012hPa82%
18-Jun-2024 21:00Light Rain24°C7 mph, SE100%10000m1013hPa81%
19-Jun-2024 00:00Overcast Clouds25°C7 mph, SE92%10000m1014hPa74%
19-Jun-2024 03:00Broken Clouds26°C9 mph, S63%10000m1011hPa71%
19-Jun-2024 06:00Broken Clouds26°C9 mph, SE70%10000m1010hPa69%
19-Jun-2024 09:00Scattered Clouds25°C9 mph, SE45%10000m1011hPa78%
19-Jun-2024 12:00Light Rain25°C7 mph, SE71%10000m1012hPa83%
19-Jun-2024 15:00Light Rain24°C7 mph, E100%10000m1011hPa87%
19-Jun-2024 18:00Light Rain24°C2 mph, NE100%10000m1010hPa88%
19-Jun-2024 21:00Light Rain24°C2 mph, N98%10000m1012hPa87%
20-Jun-2024 00:00Overcast Clouds26°C4 mph, N88%10000m1012hPa78%
20-Jun-2024 03:00Broken Clouds26°C7 mph, SW73%10000m1010hPa80%
20-Jun-2024 06:00Light Rain26°C11 mph, SE66%10000m1010hPa82%
20-Jun-2024 09:00Light Rain25°C13 mph, SE92%10000m1012hPa86%
20-Jun-2024 12:00Light Rain25°C13 mph, SE96%10000m1013hPa86%
20-Jun-2024 15:00Light Rain25°C11 mph, SE100%10000m1011hPa87%
20-Jun-2024 18:00Light Rain25°C7 mph, SE99%10000m1011hPa88%
20-Jun-2024 21:00Light Rain24°C7 mph, SE99%10000m1012hPa89%